Kendall, FL

12:55 AM EDT on March 29, 2017 (GMT -0400)
Kendall-Tamiami Executive

Weather History for KTMB - September, 2012

Change the Weather History Date:

Thursday, September 13, 2012

  Actual Average Record
Temperature  
Mean Temperature 82 °F -  
Max Temperature 84 °F 88 °F 93 °F (1996)
Min Temperature 79 °F 71 °F 70 °F (1998)
Cooling Degree Days 16    
Growing Degree Days 32 (Base 50)    
Moisture  
Dew Point 74 °F    
Average Humidity 78    
Maximum Humidity 88    
Minimum Humidity 67    
Precipitation  
Precipitation 0.05 in - - ()
Sea Level Pressure  
Sea Level Pressure 30.01 in    
Wind  
Wind Speed 12 mph (ENE)    
Max Wind Speed 15 mph    
Max Gust Speed 23 mph    
Visibility 10 miles    
Events Thunderstorm    
Averages and records for this station are not official NWS values.
T = Trace of Precipitation, MM = Missing Value Source: NWS Daily Summary

Daily Weather History Graph

Daily Weather History Graph

Search for Another Location

Airport or City:

Trip Planner

Search our weather history database for the weather conditions in past years. The results will help you decide how hot, cold, wet, or windy it might be!

Date:

Astronomy

Sep. 13, 2012 Rise Set
Actual Time 7:07 AM EDT 7:27 PM EDT
Civil Twilight 6:43 AM EDT 7:50 PM EDT
Nautical Twilight 6:17 AM EDT 8:17 PM EDT
Astronomical Twilight 5:49 AM EDT 8:44 PM EDT
Moon 4:36 AM EDT (9/13) 5:41 PM EDT (9/13)
Length of Visible Light 13h 06m
Length of Day
12h 20m
Waning Crescent, 7% of the Moon is Illuminated
Sep 13
Waning Crescent
Sep 15
New
Sep 22
First Quarter
Sep 29
Full
Oct 8
Last Quarter

Hourly Weather History & Observations

Time (EDT) Temp. Heat Index Dew Point Humidity Pressure Visibility Wind Dir Wind Speed Gust Speed Precip Events Conditions
12:53 AM 79.0 °F - 75.0 °F 88% 30.01 in 10.0 mi ENE 12.7 mph - 0.04 in   Scattered Clouds
1:53 AM 79.0 °F - 75.0 °F 88% 30.00 in 10.0 mi East 15.0 mph 21.9 mph N/A   Mostly Cloudy
2:53 AM 79.0 °F - 73.0 °F 82% 29.98 in 10.0 mi East 11.5 mph - N/A   Clear
3:53 AM 80.1 °F 84.5 °F 73.9 °F 81% 29.97 in 10.0 mi East 13.8 mph 21.9 mph N/A   Overcast
4:53 AM 80.1 °F 83.8 °F 72.0 °F 76% 29.98 in 10.0 mi East 11.5 mph - N/A   Overcast
5:53 AM 81.0 °F 85.8 °F 73.0 °F 77% 29.99 in 10.0 mi East 11.5 mph - N/A   Scattered Clouds
6:53 AM 80.1 °F 84.5 °F 73.9 °F 81% 29.99 in 10.0 mi East 13.8 mph - 0.00 in   Scattered Clouds
7:43 AM 80.6 °F 85.4 °F 73.4 °F 79% 30.00 in 10.0 mi East 15.0 mph 23.0 mph N/A   Mostly Cloudy
7:53 AM 79.0 °F - 73.0 °F 82% 30.00 in 10.0 mi East 11.5 mph - N/A   Mostly Cloudy
8:53 AM 80.1 °F 84.2 °F 73.0 °F 79% 30.03 in 10.0 mi East 9.2 mph - N/A   Overcast
9:53 AM 82.9 °F 89.4 °F 73.9 °F 74% 30.04 in 10.0 mi East 13.8 mph - N/A   Overcast
10:53 AM 82.0 °F 87.9 °F 73.9 °F 76% 30.06 in 10.0 mi ENE 12.7 mph - N/A   Mostly Cloudy
11:17 AM 80.6 °F 85.4 °F 73.4 °F 79% 30.05 in 10.0 mi ENE 11.5 mph - N/A Thunderstorm Thunderstorm
11:53 AM 82.4 °F 88.2 °F 73.4 °F 74% 30.06 in 10.0 mi NE 9.2 mph - N/A Thunderstorm Thunderstorm
12:01 PM 82.4 °F 88.2 °F 73.4 °F 74% 30.06 in 10.0 mi ENE 8.1 mph - N/A   Scattered Clouds
12:53 PM 82.0 °F 87.9 °F 73.9 °F 76% 30.05 in 10.0 mi East 12.7 mph - N/A   Mostly Cloudy
1:53 PM 82.0 °F 87.9 °F 73.9 °F 76% 30.03 in 10.0 mi East 15.0 mph 21.9 mph N/A   Clear
2:53 PM 84.0 °F 89.6 °F 72.0 °F 67% 30.01 in 10.0 mi East 11.5 mph - N/A   Clear
3:53 PM 82.9 °F 88.8 °F 73.0 °F 72% 29.99 in 10.0 mi East 13.8 mph - N/A   Scattered Clouds
4:53 PM 84.0 °F 91.9 °F 75.0 °F 74% 29.97 in 10.0 mi East 10.4 mph - N/A   Partly Cloudy
5:53 PM 82.9 °F 88.8 °F 73.0 °F 72% 29.97 in 10.0 mi East 12.7 mph - N/A   Scattered Clouds
6:53 PM 82.9 °F 89.4 °F 73.9 °F 74% 29.97 in 10.0 mi NE 10.4 mph - N/A   Clear
7:53 PM 81.0 °F 86.2 °F 73.9 °F 79% 29.98 in 10.0 mi ENE 6.9 mph - N/A   Partly Cloudy
8:53 PM 81.0 °F 85.8 °F 73.0 °F 77% 29.99 in 10.0 mi ENE 4.6 mph - N/A   Clear
9:53 PM 79.0 °F - 73.0 °F 82% 30.02 in 10.0 mi NE 8.1 mph - N/A   Scattered Clouds
10:53 PM 79.0 °F - 73.9 °F 84% 30.02 in 10.0 mi NE 8.1 mph - 0.01 in   Mostly Cloudy
11:53 PM 80.1 °F 85.1 °F 75.0 °F 85% 30.02 in 10.0 mi NE 5.8 mph - N/A   Scattered Clouds